TimeEST,TemperatureF,Dew PointF,Humidity,Sea Level PressureIn,VisibilityMPH,Wind Direction,Wind SpeedMPH,Gust SpeedMPH,PrecipitationIn,Events,Conditions,WindDirDegrees,DateUTC
12:53 AM,27.0,23.0,85,29.69,10.0,Calm,Calm,-,N/A,,Clear,0,2012-02-24 05:53:00
1:53 AM,30.9,24.1,76,29.70,10.0,South,4.6,-,N/A,,Clear,190,2012-02-24 06:53:00
2:53 AM,30.9,24.1,76,29.72,10.0,West,3.5,-,N/A,,Clear,270,2012-02-24 07:53:00
3:53 AM,30.9,23.0,72,29.73,10.0,West,3.5,-,N/A,,Clear,270,2012-02-24 08:53:00
4:53 AM,30.0,23.0,75,29.77,10.0,WSW,4.6,-,N/A,,Scattered Clouds,250,2012-02-24 09:53:00
5:53 AM,28.0,23.0,81,29.76,10.0,SW,3.5,-,N/A,,Overcast,220,2012-02-24 10:53:00
6:53 AM,30.0,24.1,79,29.78,10.0,Calm,Calm,-,N/A,,Overcast,0,2012-02-24 11:53:00
7:53 AM,30.9,25.0,79,29.78,10.0,SSW,3.5,-,N/A,,Overcast,210,2012-02-24 12:53:00
8:53 AM,33.1,26.1,75,29.78,10.0,Calm,Calm,-,N/A,,Mostly Cloudy,0,2012-02-24 13:53:00
9:53 AM,35.1,26.1,70,29.81,10.0,Calm,Calm,-,N/A,,Mostly Cloudy,0,2012-02-24 14:53:00
10:53 AM,37.9,26.1,62,29.79,10.0,Calm,Calm,-,N/A,,Overcast,0,2012-02-24 15:53:00
11:53 AM,39.0,26.1,60,29.77,10.0,Calm,Calm,-,N/A,,Overcast,0,2012-02-24 16:53:00
12:53 PM,39.9,27.0,60,29.75,10.0,East,3.5,-,N/A,,Mostly Cloudy,80,2012-02-24 17:53:00
1:53 PM,39.9,25.0,55,29.71,10.0,SSE,6.9,-,N/A,,Mostly Cloudy,150,2012-02-24 18:53:00
2:53 PM,39.9,26.1,58,29.70,10.0,SSE,5.8,-,N/A,,Overcast,150,2012-02-24 19:53:00
3:53 PM,39.0,25.0,57,29.68,10.0,SE,6.9,-,N/A,,Overcast,140,2012-02-24 20:53:00
4:53 PM,37.0,25.0,62,29.66,10.0,SE,3.5,-,N/A,,Overcast,130,2012-02-24 21:53:00
5:53 PM,37.0,25.0,62,29.62,10.0,ESE,9.2,-,N/A,,Overcast,110,2012-02-24 22:53:00
6:53 PM,35.1,26.1,70,29.62,10.0,SSE,5.8,-,N/A,,Overcast,150,2012-02-24 23:53:00
7:47 PM,33.8,30.2,87,29.56,0.5,ESE,12.7,-,0.00,Fog-Snow,Snow,120,2012-02-25 00:47:00
7:53 PM,33.1,30.9,92,29.56,0.2,ESE,10.4,-,0.00,Fog-Snow,Snow,120,2012-02-25 00:53:00
7:55 PM,33.8,30.2,87,29.55,0.8,ESE,8.1,-,0.00,Snow,Light Snow,120,2012-02-25 00:55:00
8:03 PM,33.8,32.0,93,29.56,0.5,ESE,8.1,-,0.01,Fog-Snow,Light Snow,120,2012-02-25 01:03:00
8:09 PM,33.8,32.0,93,29.54,2.0,ESE,6.9,-,0.01,Snow,Light Snow,110,2012-02-25 01:09:00
8:53 PM,33.1,30.9,92,29.53,1.8,East,6.9,-,0.01,Snow,Light Snow,80,2012-02-25 01:53:00
9:00 PM,33.8,30.2,87,29.52,1.8,East,8.1,-,0.01,Snow,Light Snow,90,2012-02-25 02:00:00
9:03 PM,33.8,30.2,87,29.51,0.2,East,9.2,-,0.01,Fog-Snow,Light Snow,90,2012-02-25 02:03:00
9:18 PM,33.8,30.2,87,29.47,0.5,East,9.2,-,0.03,Fog-Snow,Snow,100,2012-02-25 02:18:00
9:38 PM,33.8,30.2,87,29.44,0.2,East,9.2,-,0.05,Fog-Snow,Snow,100,2012-02-25 02:38:00
9:53 PM,33.1,30.9,92,29.43,0.5,East,8.1,-,0.07,Fog-Snow,Snow,90,2012-02-25 02:53:00
10:14 PM,33.8,30.2,87,29.42,1.0,ESE,8.1,-,0.02,Snow,Snow,110,2012-02-25 03:14:00
10:36 PM,33.8,30.2,87,29.38,0.8,East,11.5,-,0.06,Snow,Snow,90,2012-02-25 03:36:00
10:40 PM,33.8,30.2,87,29.36,0.8,East,11.5,-,0.07,Snow,Snow,100,2012-02-25 03:40:00
10:53 PM,33.1,30.9,92,29.34,0.2,East,10.4,-,0.09,Fog-Snow,Snow,90,2012-02-25 03:53:00
10:56 PM,33.8,30.2,87,29.32,1.0,East,10.4,-,0.00,Fog-Snow,Snow,90,2012-02-25 03:56:00
11:03 PM,33.8,30.2,87,29.32,0.2,East,10.4,20.7,0.01,Fog-Snow,Snow,100,2012-02-25 04:03:00
11:15 PM,33.8,30.2,87,29.30,0.5,East,11.5,-,0.03,Fog-Snow,Snow,100,2012-02-25 04:15:00
11:36 PM,33.8,30.2,87,29.25,1.0,East,10.4,-,0.06,Snow,Light Snow,80,2012-02-25 04:36:00
11:53 PM,33.8,30.2,87,29.22,1.0,East,10.4,-,N/A,Rain-Snow,Light Snow,80,2012-02-25 04:53:00